Погода в Городенке

Украина / Ивано-Франковская область     48°40′33″N   25°29′45″E
темп.,
°C
ветер,
м/с
пор.,
м/с
влажн.,
%
обл.,
%
осадки,
мм/ч
давл.,
гПа
погр.,
м
14 апреля, ср
ср1400:00+6сз5781100 0.0 1017390
03:00+5сз4583100 0.0 1015313
06:00+5сз3486100 0.1 1014293
09:00+4зсз5591100 0.2 1014363
12:00+3зсз5793100 0.0 1015347
15:00+2зсз5894100 0.1 1015379
18:00+2зсз61095100 0.1 1015413
21:00+1сз61195100 0.1 1016433
15 апреля, чт
чт1500:00+1сз61096100 0.2 1016460
03:00+1сз61196100 1.0 1016448
06:000сз61297100 0.9 1016444
09:00+1сз61297100 1.6 1017470
12:00+2сз71194100 0.2 1017590
15:00+3сз81191100 1.3 1017702
18:00+3сз71394100 1.1 1017650
21:00+1сз71497100 2.8 1018576
16 апреля, пт
пт1600:00+1зсз81497100 0.8 1017581
03:00+1зсз81497100 1.4 1016662
06:00+1зсз81697100 0.7 1016665
09:00+1зсз81697100 1.5 1016699
12:00+2зсз81697100 1.6 1016720
15:00+3зсз81597100 3.1 1017720
18:00+3зсз81497100 0.7 1018818
21:00+3зсз71397100 1.1 1019835
17 апреля, сб
сб1700:00+3зсз61397100 0.2 1019730
03:00+3зсз51098100 1.4 1019766
06:00+3зсз4998100 0.3 1019668
09:00+3зсз4898100 0.8 1020506
12:00+4зсз3596100 0.3 1021452
15:00+5сз1290100 0.3 1021463
18:00+7вюв118496 0.0 1020471
21:00+5вюв2392100 0.1 102183
18 апреля, вс
вс1800:00+5в2493100 0.0 1021116
03:00+4вюв239493 0.0 102065
06:00+4в2494100 0.0 1020145
09:00+5вюв4789100 0.0 1020345
12:00+9вюв5774100 0.1 10191066
15:00+8ююв5783100 0.6 10191166
18:00+7в4886100 0.6 1019915
21:00+7в51091100 1.9 1019505